Location: Barnston
(51.8500°N, 0.4000°E)
Time: 16:12:30
(UTC+00:00)

ASTEX 1 - Pass Details

Date: 26 September 2023
Orbit: 718 x 740 km, 92.7° (Epoch: 08 December)

Event Time Altitude Azimuth Distance (km) Brightness Sun altitude
Rises 02:12:23 0° 8° (N) 3,184 7.5 -31.1°
Reaches altitude 10° 02:14:44 10° 12° (NNE) 2,254 6.6 -30.9°
Enters shadow 02:18:54 52° 54° (NE) 908 4.1 -30.4°
